User: anonymous
Location: Unspecified
(0.0000°N, 0.0000°E)
Time: 07:14:47
(UTC+02:00)
Language:

AO-7 - Orbit

View from above orbital plane
View from above orbital plane
View from above satellite
View from above satellite

Ground track
Ground track

The orbit data is extracted from the following two-line orbital elements,

1 07530U 74089B   14237.88535572 -.00000039  00000-0  25716-4 0   475
2 07530 101.4796 217.4395 0012081 156.8947 268.3787 12.53606608820253
Epoch (UTC): 25 August 2014 21:14:54
Eccentricity: 0.0012081
inclination: 101.4796°
perigee height: 1440 km
apogee height: 1459 km
right ascension of ascending node: 217.4395°
argument of perigee: 156.8947°
revolutions per day: 12.53606608
mean anomaly at epoch: 268.3787°
orbit number at epoch: 82025

The dashed part of the orbit path shows where the satellite is in the earth's shadow,  

DLR